Torna al catalogo

NOAA 16 DEB

AttivoPO
NORAD 41500·DEBRIS·🇺🇸 United States

Lanciato Sep 21, 2000 da Vandenberg Space Force Base

Loading…

Prossimi Passaggi (prossime 24 ore)

TLE

AggiornatoSource: Space-Track

Epoca: Sep 14, 2026, 11:26 UTC

1 41500U 00055LY  26257.47706926  .00004381  00000-0  10402-2 0  9998
2 41500  98.9985 141.1939 0025349 235.4156 124.4646 14.54301194548609

Traccia NOAA 16 DEB in tempo reale con AllMySat

Download on the App Store